Time,TemperatureF,DewpointF,PressureIn,WindDirection,WindDirectionDegrees,WindSpeedMPH,WindSpeedGustMPH,Humidity,HourlyPrecipIn,Conditions,Clouds,dailyrainin,SoftwareType,DateUTC
2013-02-01 00:01:00,23.0,21.0,30.29,North,0,0.0,1.0,91,0.00,,,0.00,,2013-02-01 07:01:00,
2013-02-01 00:11:00,23.0,21.0,30.29,North,0,0.0,0.0,91,0.00,,,0.00,,2013-02-01 07:11:00,
2013-02-01 00:21:00,23.0,21.0,30.29,North,0,0.0,0.0,91,0.00,,,0.00,,2013-02-01 07:21:00,
2013-02-01 00:31:00,23.0,21.0,30.29,North,0,0.0,0.0,90,0.00,,,0.00,,2013-02-01 07:31:00,
2013-02-01 00:41:00,23.0,21.0,30.29,North,0,0.0,0.0,90,0.00,,,0.00,,2013-02-01 07:41:00,
2013-02-01 00:51:00,22.0,20.0,30.27,North,0,0.0,0.0,91,0.00,,,0.00,,2013-02-01 07:51:00,
2013-02-01 01:01:00,22.0,20.0,30.28,North,0,0.0,2.0,92,0.00,,,0.00,,2013-02-01 08:01:00,
2013-02-01 01:11:00,22.0,20.0,30.28,North,0,0.0,2.0,92,0.00,,,0.00,,2013-02-01 08:11:00,
2013-02-01 01:21:00,22.0,20.0,30.27,North,0,0.0,0.0,91,0.00,,,0.00,,2013-02-01 08:21:00,
2013-02-01 01:31:00,22.0,20.0,30.27,North,0,0.0,1.0,91,0.00,,,0.00,,2013-02-01 08:31:00,
2013-02-01 01:41:00,22.0,20.0,30.27,North,0,0.0,1.0,91,0.00,,,0.00,,2013-02-01 08:41:00,
2013-02-01 01:52:00,22.0,20.0,30.28,North,0,0.0,1.0,93,0.00,,,0.00,,2013-02-01 08:52:00,
2013-02-01 02:01:00,23.0,21.0,30.28,North,0,0.0,0.0,93,0.00,,,0.00,,2013-02-01 09:01:00,
2013-02-01 02:11:00,23.0,21.0,30.28,North,0,0.0,0.0,93,0.00,,,0.00,,2013-02-01 09:11:00,
2013-02-01 02:21:00,22.0,20.0,30.28,North,0,0.0,1.0,92,0.00,,,0.00,,2013-02-01 09:21:00,
2013-02-01 02:31:00,22.0,20.0,30.27,North,0,0.0,0.0,92,0.00,,,0.00,,2013-02-01 09:31:00,
2013-02-01 02:42:00,22.0,20.0,30.27,North,0,0.0,0.0,92,0.00,,,0.00,,2013-02-01 09:42:00,
2013-02-01 02:52:00,22.0,20.0,30.27,North,0,0.0,0.0,92,0.00,,,0.00,,2013-02-01 09:52:00,
2013-02-01 03:01:00,22.0,20.0,30.27,North,0,0.0,0.0,91,0.00,,,0.00,,2013-02-01 10:01:00,
2013-02-01 03:11:00,22.0,20.0,30.27,North,0,0.0,0.0,91,0.00,,,0.00,,2013-02-01 10:11:00,
2013-02-01 03:21:00,22.0,20.0,30.27,North,0,0.0,0.0,91,0.00,,,0.00,,2013-02-01 10:21:00,
2013-02-01 03:31:00,22.0,20.0,30.26,North,0,0.0,1.0,93,0.00,,,0.00,,2013-02-01 10:31:00,
2013-02-01 03:42:00,22.0,20.0,30.26,North,0,0.0,1.0,93,0.00,,,0.00,,2013-02-01 10:42:00,
2013-02-01 03:53:00,22.0,20.0,30.26,North,0,0.0,1.0,91,0.00,,,0.00,,2013-02-01 10:53:00,
2013-02-01 04:01:00,21.0,19.0,30.26,North,0,0.0,1.0,91,0.00,,,0.00,,2013-02-01 11:01:00,
2013-02-01 04:11:00,21.0,19.0,30.26,North,0,0.0,1.0,91,0.00,,,0.00,,2013-02-01 11:11:00,
2013-02-01 04:21:00,21.0,19.0,30.26,North,0,0.0,1.0,91,0.00,,,0.00,,2013-02-01 11:21:00,
2013-02-01 04:31:00,21.0,19.0,30.26,North,0,0.0,2.0,92,0.00,,,0.00,,2013-02-01 11:31:00,
2013-02-01 04:41:00,21.0,19.0,30.26,North,0,0.0,2.0,92,0.00,,,0.00,,2013-02-01 11:41:00,
2013-02-01 04:53:00,22.0,20.0,30.26,North,0,0.0,1.0,91,0.00,,,0.00,,2013-02-01 11:53:00,
2013-02-01 05:01:00,22.0,20.0,30.25,North,0,0.0,0.0,90,0.00,,,0.00,,2013-02-01 12:01:00,
2013-02-01 05:12:00,22.0,20.0,30.25,North,0,0.0,0.0,90,0.00,,,0.00,,2013-02-01 12:12:00,
2013-02-01 05:22:00,21.0,18.0,30.25,North,0,0.0,0.0,88,0.00,,,0.00,,2013-02-01 12:22:00,
2013-02-01 05:31:00,21.0,18.0,30.25,North,0,0.0,0.0,89,0.00,,,0.00,,2013-02-01 12:31:00,
2013-02-01 05:42:00,21.0,18.0,30.25,North,0,0.0,0.0,89,0.00,,,0.00,,2013-02-01 12:42:00,
2013-02-01 05:52:00,21.0,18.0,30.25,North,0,0.0,0.0,89,0.00,,,0.00,,2013-02-01 12:52:00,
2013-02-01 06:01:00,21.0,18.0,30.25,North,0,0.0,0.0,89,0.00,,,0.00,,2013-02-01 13:01:00,
2013-02-01 06:22:00,19.0,16.0,30.25,North,0,0.0,0.0,89,0.00,,,0.00,,2013-02-01 13:22:00,
2013-02-01 06:33:00,19.0,16.0,30.25,North,0,0.0,0.0,89,0.00,,,0.00,,2013-02-01 13:33:00,
2013-02-01 06:42:00,19.0,16.0,30.25,North,0,0.0,0.0,89,0.00,,,0.00,,2013-02-01 13:42:00,
2013-02-01 06:53:00,19.0,17.0,30.25,North,0,0.0,0.0,92,0.00,,,0.00,,2013-02-01 13:53:00,
2013-02-01 07:11:00,18.0,15.0,30.25,North,0,0.0,0.0,89,0.00,,,0.00,,2013-02-01 14:11:00,
2013-02-01 07:21:00,18.0,15.0,30.25,North,0,0.0,0.0,89,0.00,,,0.00,,2013-02-01 14:21:00,
2013-02-01 07:31:00,18.0,16.0,30.25,North,0,0.0,0.0,91,0.00,,,0.00,,2013-02-01 14:31:00,
2013-02-01 07:42:00,18.0,16.0,30.25,North,0,0.0,0.0,91,0.00,,,0.00,,2013-02-01 14:42:00,
2013-02-01 07:52:00,18.0,16.0,30.26,North,0,0.0,2.0,92,0.00,,,0.00,,2013-02-01 14:52:00,
2013-02-01 08:02:00,18.0,16.0,30.26,North,0,0.0,1.0,92,0.00,,,0.00,,2013-02-01 15:02:00,
2013-02-01 08:11:00,18.0,15.0,30.26,North,0,0.0,2.0,89,0.00,,,0.00,,2013-02-01 15:11:00,
2013-02-01 08:21:00,18.0,15.0,30.26,North,0,0.0,2.0,89,0.00,,,0.00,,2013-02-01 15:21:00,
2013-02-01 08:31:00,18.0,15.0,30.26,North,0,0.0,2.0,89,0.00,,,0.00,,2013-02-01 15:31:00,
2013-02-01 08:41:00,18.0,15.0,30.26,North,0,0.0,2.0,89,0.00,,,0.00,,2013-02-01 15:41:00,
2013-02-01 08:51:00,22.0,20.0,30.28,North,0,0.0,3.0,90,0.00,,,0.00,,2013-02-01 15:51:00,
2013-02-01 09:02:00,26.0,22.0,30.29,South,173,2.0,3.0,86,0.00,,,0.00,,2013-02-01 16:02:00,
2013-02-01 09:11:00,27.0,23.0,30.28,SSW,213,1.0,4.0,83,0.00,,,0.00,,2013-02-01 16:11:00,
2013-02-01 09:21:00,27.0,23.0,30.28,SSW,213,1.0,4.0,83,0.00,,,0.00,,2013-02-01 16:21:00,
2013-02-01 09:32:00,27.0,23.0,30.28,SSW,213,1.0,4.0,83,0.00,,,0.00,,2013-02-01 16:32:00,
2013-02-01 09:42:00,27.0,23.0,30.28,SSW,213,1.0,4.0,83,0.00,,,0.00,,2013-02-01 16:42:00,
2013-02-01 09:52:00,27.0,23.0,30.28,SSW,213,1.0,4.0,83,0.00,,,0.00,,2013-02-01 16:52:00,
2013-02-01 10:02:00,33.0,26.0,30.28,North,0,0.0,4.0,74,0.01,,,0.01,,2013-02-01 17:02:00,
2013-02-01 10:11:00,33.0,26.0,30.28,North,0,0.0,4.0,74,0.01,,,0.01,,2013-02-01 17:11:00,
2013-02-01 10:22:00,33.0,26.0,30.28,North,0,0.0,4.0,74,0.01,,,0.01,,2013-02-01 17:22:00,
2013-02-01 10:31:00,33.0,26.0,30.28,North,0,0.0,4.0,74,0.01,,,0.01,,2013-02-01 17:31:00,
2013-02-01 10:53:00,41.0,22.0,30.28,North,0,0.0,1.0,47,0.00,,,0.01,,2013-02-01 17:53:00,
2013-02-01 11:02:00,42.0,23.0,30.27,North,0,0.0,1.0,47,0.00,,,0.01,,2013-02-01 18:02:00,
2013-02-01 11:11:00,42.0,23.0,30.27,North,0,0.0,1.0,47,0.00,,,0.01,,2013-02-01 18:11:00,
2013-02-01 11:21:00,46.0,22.0,30.29,SW,216,1.0,3.0,39,0.00,,,0.01,,2013-02-01 18:21:00,
2013-02-01 11:31:00,46.0,22.0,30.29,SW,216,1.0,3.0,39,0.00,,,0.01,,2013-02-01 18:31:00,
2013-02-01 11:42:00,46.0,22.0,30.29,SW,216,1.0,3.0,39,0.00,,,0.01,,2013-02-01 18:42:00,
2013-02-01 11:53:00,46.0,22.0,30.29,SW,216,1.0,3.0,39,0.00,,,0.01,,2013-02-01 18:53:00,
2013-02-01 12:01:00,50.0,18.0,30.30,NNE,33,1.0,4.0,28,0.00,,,0.01,,2013-02-01 19:01:00,
2013-02-01 12:11:00,50.0,18.0,30.30,NNE,33,1.0,4.0,28,0.00,,,0.01,,2013-02-01 19:11:00,
2013-02-01 12:21:00,50.0,18.0,30.30,NNE,33,1.0,4.0,28,0.00,,,0.01,,2013-02-01 19:21:00,
2013-02-01 12:32:00,52.0,22.0,30.29,SSE,163,3.0,7.0,30,0.00,,,0.01,,2013-02-01 19:32:00,
2013-02-01 12:41:00,52.0,22.0,30.29,SSE,163,3.0,7.0,30,0.00,,,0.01,,2013-02-01 19:41:00,
2013-02-01 12:52:00,52.0,20.0,30.28,East,89,2.0,6.0,28,0.00,,,0.01,,2013-02-01 19:52:00,
2013-02-01 13:01:00,52.0,20.0,30.28,East,89,2.0,6.0,28,0.00,,,0.01,,2013-02-01 20:01:00,
2013-02-01 13:11:00,52.0,20.0,30.27,ENE,59,3.0,7.0,28,0.00,,,0.01,,2013-02-01 20:11:00,
2013-02-01 13:21:00,52.0,20.0,30.27,ENE,59,3.0,7.0,28,0.00,,,0.01,,2013-02-01 20:21:00,
2013-02-01 13:31:00,52.0,19.0,30.26,NE,52,3.0,8.0,27,0.00,,,0.01,,2013-02-01 20:31:00,
2013-02-01 13:42:00,54.0,19.0,30.26,ESE,115,4.0,8.0,25,0.00,,,0.01,,2013-02-01 20:42:00,
2013-02-01 13:52:00,54.0,19.0,30.26,ESE,115,4.0,8.0,25,0.00,,,0.01,,2013-02-01 20:52:00,
2013-02-01 14:01:00,54.0,21.0,30.25,ESE,112,3.0,9.0,27,0.00,,,0.01,,2013-02-01 21:01:00,
2013-02-01 14:11:00,54.0,21.0,30.25,ESE,112,3.0,9.0,27,0.00,,,0.01,,2013-02-01 21:11:00,
2013-02-01 14:21:00,54.0,21.0,30.25,ESE,112,3.0,9.0,27,0.00,,,0.01,,2013-02-01 21:21:00,
2013-02-01 14:31:00,53.0,25.0,30.25,SE,135,7.0,12.0,33,0.00,,,0.01,,2013-02-01 21:31:00,
2013-02-01 14:41:00,53.0,25.0,30.25,SE,135,7.0,12.0,33,0.00,,,0.01,,2013-02-01 21:41:00,
2013-02-01 14:52:00,53.0,22.0,30.25,SE,126,7.0,11.0,30,0.00,,,0.01,,2013-02-01 21:52:00,
2013-02-01 15:01:00,53.0,25.0,30.26,East,89,9.0,13.0,34,0.00,,,0.01,,2013-02-01 22:01:00,
2013-02-01 15:11:00,53.0,25.0,30.26,East,89,9.0,13.0,34,0.00,,,0.01,,2013-02-01 22:11:00,
2013-02-01 15:21:00,53.0,27.0,30.29,East,91,7.0,13.0,36,0.00,,,0.01,,2013-02-01 22:21:00,
2013-02-01 15:32:00,52.0,27.0,30.28,East,98,8.0,13.0,37,0.00,,,0.01,,2013-02-01 22:32:00,
2013-02-01 15:41:00,52.0,27.0,30.28,East,98,8.0,13.0,37,0.00,,,0.01,,2013-02-01 22:41:00,
2013-02-01 15:52:00,52.0,27.0,30.29,East,95,7.0,13.0,37,0.00,,,0.01,,2013-02-01 22:52:00,
2013-02-01 16:01:00,52.0,27.0,30.29,East,95,7.0,11.0,38,0.00,,,0.01,,2013-02-01 23:01:00,
2013-02-01 16:11:00,52.0,27.0,30.29,East,95,7.0,11.0,38,0.00,,,0.01,,2013-02-01 23:11:00,
2013-02-01 16:21:00,52.0,28.0,30.29,East,98,7.0,12.0,39,0.00,,,0.01,,2013-02-01 23:21:00,
2013-02-01 16:31:00,51.0,29.0,30.29,ENE,78,8.0,12.0,42,0.00,,,0.01,,2013-02-01 23:31:00,
2013-02-01 16:41:00,51.0,29.0,30.29,ENE,78,8.0,12.0,42,0.00,,,0.01,,2013-02-01 23:41:00,
2013-02-01 16:52:00,50.0,28.0,30.29,East,90,7.0,10.0,42,0.00,,,0.01,,2013-02-01 23:52:00,
2013-02-01 17:01:00,50.0,29.0,30.29,East,89,7.0,11.0,44,0.00,,,0.01,,2013-02-02 00:01:00,
2013-02-01 17:21:00,49.0,29.0,30.29,East,87,5.0,8.0,45,0.00,,,0.01,,2013-02-02 00:21:00,
2013-02-01 17:31:00,48.0,28.0,30.29,East,92,1.0,8.0,46,0.00,,,0.01,,2013-02-02 00:31:00,
2013-02-01 17:41:00,48.0,28.0,30.29,East,92,1.0,8.0,46,0.00,,,0.01,,2013-02-02 00:41:00,
2013-02-01 17:52:00,46.0,27.0,30.30,NE,52,1.0,3.0,48,0.00,,,0.01,,2013-02-02 00:52:00,
2013-02-01 18:01:00,45.0,27.0,30.30,North,0,0.0,2.0,50,0.00,,,0.01,,2013-02-02 01:01:00,
2013-02-01 18:11:00,45.0,27.0,30.30,North,0,0.0,2.0,50,0.00,,,0.01,,2013-02-02 01:11:00,
2013-02-01 18:21:00,43.0,27.0,30.30,North,0,0.0,2.0,53,0.00,,,0.01,,2013-02-02 01:21:00,
2013-02-01 18:31:00,40.0,27.0,30.31,North,0,0.0,0.0,60,0.00,,,0.01,,2013-02-02 01:31:00,
2013-02-01 18:41:00,40.0,27.0,30.31,North,0,0.0,0.0,60,0.00,,,0.01,,2013-02-02 01:41:00,
2013-02-01 18:52:00,40.0,27.0,30.31,North,0,0.0,0.0,60,0.00,,,0.01,,2013-02-02 01:52:00,
2013-02-01 19:01:00,35.0,25.0,30.32,North,0,0.0,0.0,67,0.00,,,0.01,,2013-02-02 02:01:00,
2013-02-01 19:11:00,35.0,25.0,30.32,North,0,0.0,0.0,67,0.00,,,0.01,,2013-02-02 02:11:00,
2013-02-01 19:21:00,34.0,25.0,30.32,North,0,0.0,1.0,70,0.00,,,0.01,,2013-02-02 02:21:00,
2013-02-01 19:31:00,32.0,24.0,30.33,North,0,0.0,1.0,73,0.00,,,0.01,,2013-02-02 02:31:00,
2013-02-01 19:41:00,32.0,24.0,30.33,North,0,0.0,1.0,73,0.00,,,0.01,,2013-02-02 02:41:00,
2013-02-01 19:52:00,32.0,26.0,30.34,North,0,0.0,1.0,77,0.00,,,0.01,,2013-02-02 02:52:00,
2013-02-01 20:02:00,31.0,25.0,30.35,North,0,0.0,1.0,77,0.00,,,0.01,,2013-02-02 03:02:00,
2013-02-01 20:11:00,30.0,24.0,30.35,North,0,0.0,1.0,79,0.00,,,0.01,,2013-02-02 03:11:00,
2013-02-01 20:21:00,30.0,24.0,30.35,North,0,0.0,1.0,79,0.00,,,0.01,,2013-02-02 03:21:00,
2013-02-01 20:31:00,30.0,25.0,30.34,North,0,0.0,2.0,81,0.00,,,0.01,,2013-02-02 03:31:00,
2013-02-01 20:42:00,29.0,25.0,30.35,SE,126,1.0,2.0,83,0.00,,,0.01,,2013-02-02 03:42:00,
2013-02-01 20:51:00,29.0,25.0,30.35,SE,126,1.0,2.0,83,0.00,,,0.01,,2013-02-02 03:51:00,
2013-02-01 21:01:00,28.0,24.0,30.35,NE,54,1.0,3.0,84,0.00,,,0.01,,2013-02-02 04:01:00,
2013-02-01 21:11:00,28.0,24.0,30.35,NE,54,1.0,3.0,84,0.00,,,0.01,,2013-02-02 04:11:00,
2013-02-01 21:21:00,27.0,24.0,30.36,NNE,32,1.0,3.0,87,0.00,,,0.01,,2013-02-02 04:21:00,
2013-02-01 21:32:00,27.0,24.0,30.36,NNE,32,1.0,3.0,87,0.00,,,0.01,,2013-02-02 04:32:00,
2013-02-01 21:41:00,27.0,24.0,30.36,NNE,32,1.0,3.0,87,0.00,,,0.01,,2013-02-02 04:41:00,
2013-02-01 21:52:00,27.0,24.0,30.36,North,0,0.0,1.0,88,0.00,,,0.01,,2013-02-02 04:52:00,
2013-02-01 22:02:00,27.0,24.0,30.37,North,0,0.0,0.0,89,0.00,,,0.01,,2013-02-02 05:02:00,
2013-02-01 22:11:00,27.0,24.0,30.37,North,0,0.0,0.0,89,0.00,,,0.01,,2013-02-02 05:11:00,
2013-02-01 22:22:00,27.0,24.0,30.37,North,0,0.0,0.0,89,0.00,,,0.01,,2013-02-02 05:22:00,
2013-02-01 22:32:00,26.0,23.0,30.37,North,0,0.0,1.0,88,0.00,,,0.01,,2013-02-02 05:32:00,
2013-02-01 22:41:00,26.0,23.0,30.37,North,0,0.0,1.0,88,0.00,,,0.01,,2013-02-02 05:41:00,
2013-02-01 22:52:00,26.0,23.0,30.37,North,0,0.0,1.0,88,0.00,,,0.01,,2013-02-02 05:52:00,
2013-02-01 23:02:00,25.0,22.0,30.38,North,0,0.0,0.0,88,0.00,,,0.01,,2013-02-02 06:02:00,
2013-02-01 23:11:00,25.0,22.0,30.38,North,0,0.0,0.0,88,0.00,,,0.01,,2013-02-02 06:11:00,
2013-02-01 23:21:00,25.0,22.0,30.38,North,0,0.0,1.0,89,0.00,,,0.01,,2013-02-02 06:21:00,
2013-02-01 23:31:00,25.0,22.0,30.38,North,0,0.0,0.0,90,0.00,,,0.01,,2013-02-02 06:31:00,
2013-02-01 23:42:00,25.0,22.0,30.38,North,0,0.0,0.0,90,0.00,,,0.01,,2013-02-02 06:42:00,
2013-02-01 23:52:00,25.0,22.0,30.38,North,0,0.0,0.0,89,0.00,,,0.01,,2013-02-02 06:52:00,